Hauptseite
METAR-TAF:

METAR-TAF

Flughäfen :

Awg-1, Niederlande

Bohrplattform

Breite: 53-29-30N, Länge: 5-56-30E, Höhe: 33 m

Beobachtung

Neuester Wetterbericht von vor 13 Minuten, um 23:55 UTC
Wind 14 kt aus Ost, variierte zwischen Nord/Nordost und Südost
Temperatur 17°C
Luftfeuchtigkeit 82%
Luftdruck 1004 hPa
Sichtweite 10 km oder mehr

METAR: EHMA 272355Z AUTO 10014KT 030V140 9999 NSC 17/14 Q1004

Zeit: 02:08 (00:08 UTC)


TAF: fehlend

Wetterbeobachtungen und Prognosen von mehr als 4000 Flughäfen (METAR und TAF Bericht).

Die verfügbaren Stationen werden durch gelbe und rote Markierungen auf der Karte dargestellt.

Führen Sie die Maus auf sie, um den Namen der Station zu sehen.

Darauf klicken, um die Beobachtung von Wetterbeobachtungen und Prognosen zu sehen.

Um die Karte zu ändern : klicken Sie auf den grünen Tasten mit einem schwarzen Kreuz Zum Vergrößern, auf den grünen Button mit einem Gedankenstrich zu verkleinern, oder auf die grünen Pfeile für benachbarte Karten.


METAR-TAF: